FREGAT R/B, 43088

Orbit data source: Space-Track

FREGAT R/B, 43088 is space debris in GEO originally from a launch on Tue, 26 Dec 2017 UTC launched from the Tyuratam Missile And Space Complex (TTMTR). Debris objects in space refer to the collection of defunct objects orbiting the Earth. Examples of debris include non-operational satellites, rocket bodies, and fragments generated from explosions, collisions, or faulty payload assembly.

Not visible in the next 10 days
Identifier
43088, 2017-086B
Orbit
GEO
Country
Flag of CISCIS
Related business
Manufacturer
Lavochkin
Mission
Spacecraft
Bus & Motor
FREGAT, Unknown motor
Mass
1,000 kg wet, 1,000 kg dry
Launch date (UTC)
2017-12-26 (8 years ago)
Launch vehicle
Unknown
Launch site
Tyuratam Missile And Space Complex (TTMTR)
Object type
Payload
Rocket body
Debris
Shape & HBR
Cyl, 1.6 m
Radar Cross Section
8.683 m²

Expand to show TLE details & history
Last TLE update: 21 hours ago

TLE from 21 hours ago
0 FREGAT R/B
1 43088U 17086B   25352.60871503 -.00000243  00000-0  00000-0 0  9992
2 43088   7.0859  68.3122 0126910  23.5875 336.8096  0.98389801 28668
Epoch: 2025-12-18T14:36Z
TLE epoch observation values (Epoch: 2025-12-18T14:36:32.978Z)
Latitude
Longitude
121.52312°
Altitude
35,822.09 km
Speed
3.091 km/s
True Right ascension
04h 32m 29s
True Declination
0° 00' 00"
Sunlit
Object was in daylight at epoch
Visualization orbit readout
Latitude
Unknown
Longitude
Unknown
Altitude
Unknown
Speed
Unknown
Apparent Right ascension
Unknown
Apparent Declination
Unknown
Sunlit
N/A
Visualization observer readout
Local Sidereal Time
10:14:44
Azimuth
Unknown
Elevation
Unknown
Doppler factor
Unknown
Orbital elements
Apogee altitude
36,865.537 km
Perigee altitude
35,781.682 km
Semi-major axis
42,701.747 km
Eccentricity
0.01269
Inclination
7.0859°
RAAN
68.3122°
Arg. of periapsis
23.5875°
True anomaly
336.22846°
Mean anomaly
336.8096°
Eccentric anomaly
336.51988°
Mean motion
0.24597 °/min
Orbital period
1,463.62 mins
BSTAR
0
Loading maneuver chart data...
Computing Atmospheric mass density...
Loading historical data...
Loading historical data...
Loading historical data...
Loading historical data...
Loading historical data...
Loading historical data...
Loading historical data...

Documentation

Showing up to 5 results
|